Other Public Products
Issued by NWS Charleston, SC

Current Version | Previous Version | Text Only | Print | Product List | Glossary Off
Versions: 1 2 3 4 5 6 7 8 9 10 11 12 13 14 15 16 17 18 19 20 21 22 23 24 25 26 27 28 29 30 31 32 33 34 35 36 37 38 39 40 41 42 43 44 45 46 47 48 49 50

000
FPUS82 KCHS 170112
OPUCHS

TEST...KCHS/KSAV Gateway Observations...TEST
National Weather Service Charleston SC
800 PM EST TUE JAN 16 2018

NOTE: "fair" indicates few or no clouds below 12,000 feet with no
significant weather and/or obstructions to visibility.

SCZ050-WAZ558-NCZ071-TXZ119-213-PAZ071-DCZ001-FLZ074-172-MI076-
NYZ176-178-MAZ016-IL014-TNZ027-NJZ106-GAZ044-MD014-170200-

...Gateway Observations for Charleston International...

CITY           SKY/WX    TMP DP  RH WIND       PRES   REMARKS
Chas Airport   FAIR      43  34  70 S3        30.36F
Seattle        LGT RAIN  49  41  74 S5        30.25R
Charlotte      MOCLDY    43  26  51 S9        30.29F
Dallas DFW     CLEAR     26   2  35 N12       30.70R WCI  16
Dallas Love    PTCLDY    26   1  34 N14       30.72R WCI  14
Philladelphia  CLOUDY    39  31  72 SE6       30.37F WCI  35
Wash National  CLOUDY    39  23  52 CALM      30.37S
Baltimore      CLOUDY    32  28  85 CALM      30.36S
Miami          MOCLDY    69  51  52 N8        30.23R
Detroit        FLURRIES   7   3  84 SW10      30.45S WCI  -8
Newark         CLOUDY    34  27  75 NE6       30.39F WCI  29
Laguardia      CLOUDY    33  28  81 NE7       30.40F WCI  27
J F K          CLOUDY    34  30  85 NE6       30.41F WCI  29
Boston Logan   CLOUDY    32  26  78 SE6       30.46S WCI  26
Ft. Lauderdale FAIR      64  53  67 N7        30.23R
Chicago O`Hare FAIR      18   9  68 NW12      30.50S WCI   5
Chicago Midway FAIR      20  10  65 NW9       30.51R WCI   9
Houston Bush   CLOUDY    26  17  68 N12G22    30.66R WCI  16
Houston Hobby  CLOUDY    26  21  81 N18       30.65R WCI  13
Nashville      FAIR      10  -1  61 N6        30.61R WCI   0
Atlanta        CLOUDY    35  28  75 NW15      30.36R WCI  25

$$

GAZ044-118-TXZ119-213-NCZ071-DCZ001-MDZ014-506-PAZ021-071-NJZ106-
NYZ176-178-MAZ106-OHZ011-021-055-MIZ076-KYZ091-ILZ014-INZ047-
MNZ060-ONZ431-170200-

...Gateway Observations for Savannah International...

CITY           SKY/WX    TMP DP  RH WIND       PRES   REMARKS
Savannah Arpt  MOCLDY    44  32  62 SE5       30.35F
Atlanta        CLOUDY    35  28  75 NW15      30.36R WCI  25
Charlotte      MOCLDY    43  26  51 S9        30.29F
Dallas DFW     CLEAR     26   2  35 N12       30.70R WCI  16
Houston Bush   CLOUDY    26  17  68 N12G22    30.66R WCI  16
Wash National  CLOUDY    39  23  52 CALM      30.37S
Wash Dulles    CLOUDY    34  24  67 CALM      30.35F
Baltimore      CLOUDY    32  28  85 CALM      30.36S
Philadelphia   CLOUDY    39  31  72 SE6       30.37F WCI  35
Newark         CLOUDY    34  27  75 NE6       30.39F WCI  29
Laguardia      CLOUDY    33  28  81 NE7       30.40F WCI  27
J F K          CLOUDY    34  30  85 NE6       30.41F WCI  29
Boston         CLOUDY    32  26  78 SE6       30.46S WCI  26
Pittsburg      CLOUDY    13   7  77 W10       30.41R WCI   0
Akron          FAIR       6  -1  73 CALM      30.42R
Cleveland      FAIR       6  -1  73 SW10      30.49R WCI  -9
Cincinnati     CLOUDY     8   2  76 W8        30.53R WCI  -4
Columbus       CLOUDY     6   0  76 W5        30.51S WCI  -3
Detroit        FLURRIES   7   3  84 SW10      30.45S WCI  -8
Chicago O`Hare FAIR      18   9  68 NW12      30.50S WCI   5
Minneapolis    FAIR       2  -2  83 SW6       30.60F WCI  -9
Indianapolis   CLOUDY     6   0  76 W14       30.57R WCI -11
Toronto Canada FLURRIES  21  14  73 W10       30.36R WCI  10

$$




USA.gov is the U.S. government's official web portal to all federal, state and local government web resources and services.